User: anonymous   Login
Location: Eastchurch
(51.4000°N, 0.8667°E)
Time: 14:00:55
(UTC+00:00)
Language:

Cosmos 2360 Rocket - Orbit

View from above orbital plane
View from above orbital plane
View from above satellite
View from above satellite

Ground track
Ground track

The orbit is defined by the following mean orbital elements,

1 25407U          26073.72939228 +.00000000 +00000-0 +17702-3 0 00001
2 25407  71.0120 170.9764 0007062   0.3412 359.7715 14.16192942    06
Epoch (UTC): 14 March 2026 17:30:19
Eccentricity: 0.0007062
inclination: 71.0120°
perigee height: 833 km
apogee height: 843 km
right ascension of ascending node: 170.9764°
argument of perigee: 0.3412°
revolutions per day: 14.16192942
mean anomaly at epoch: 359.7715°

The dashed part of the orbit path shows where the satellite is in the earth's shadow,  

DLR